Погода в Леуши

Погода в Леуши : погода сейчас, прогноз погоды и архив. Всё, что Вы хотите узнать о погоде в Леуши!

Хотите узнать прогноз погоды в Леуши? Тогда Вам сюда: Погода в Леуши

Поиск расширенной информации на нашем сайте:

Другие новости

Новости СМИ2

Главная страница сайта

Новости сайта

03.07.2017

Напоминаем, что на нашем специализированном сайте Метеоцентр.Азия вы можете получить высокодетализированные автоматические прогнозы погоды по пунктам России, СНГ и мира в авиационном формате (включающие направление и скорость ветра, видимость, явления погоды, количество и форму облачности, нижнюю и верхнюю границу облачности).


Погода в Леуши - сегодня

Время (UTC), дата Ветер
(°,м/с) 
Видим.   Явления Облачность Т
(°С)
Тd
(°С)
f(%) Тe
(°С)
Pmin
(гПа)
dP
(гПа)
Po
(мм)
O2
(г/м3)
Тmin Tmax R s Состояние
почвы
12 15.08.18 350 (С) 10 км  слаб. дождь  10/10 300 м 
[Ns]
+14.9 +13.5 91 +20  1008.5  1.3  750  284           
15 15.08.18 010 (С) 10 км  слаб. дождь  9/9 300 м 
[Frnb]
+14.6 +12.7 88 +19  1009.8  1.3  751  285    +17.3     
18 15.08.18 350 (С) 20000 м  {дождь}  6/5 600 м верхняя 
[Sc|Ci fib]
+14.8 +13.1 90 +21  1010.1  0.3  751  285           
21 15.08.18 310 (СЗ) 20000 м    5/4 600 м верхняя 
[Sc|Ci fib]
+13.3 +12.1 92 +19  1010.6  0.4  752  286           
00 16.08.18 270 (З) 0500 м  туман  ?/?  
[]
+12 +11.2 95 +16  1011.1  0.5  752  288           
03 16.08.18 300 (СЗ) 0050 м  туман  ?/?  
[]
+12.6 +11.8 95 +18  1011.5  0.4  752  287  +11.9    0.0     
06 16.08.18 290 (З) 20000 м  {туман}  4/3 1000 м верхняя 
[Cu hum|Ci]
+17.2 +11.7 70 +22  1011.8  0.6  753  283           
09 16.08.18 270 (З) 20000 м    5/4 600 м верхняя 
[Sc diur, vesp|Cs]
+20 +9.5 51 +20  1011.4  -0.2  752  281           
12 16.08.18 тихо ()   20000 м    10/3 600 м средняя 
[Sc|As trans]
+19.5 +13.1 66 +25  1010.9  -0.5  752  280           
18 16.08.18 тихо ()   4000 м  слаб. дождь  10/10 600 м 
[Sc]
+14.4 +13.3 93 +20  1010.2  -0.8  751  285           
21 16.08.18 170 (Ю) 20000 м  {дождь}  10/10 600 м 
[Sc]
+14.1 +13.1 94 +21  1008.6  -1.5  750  285           
00 17.08.18 120 (ЮВ) 4000 м  слаб. дождь  10/10 300 м 
[Ns]
+13.8 +13 95 +20  1007.3  -1.4  749  285           
03 17.08.18 070 (В) 4000 м  слаб. дождь  10/10 300 м 
[Ns]
+14 +13.2 95 +21  1005.9  -1.3  748  284  +13.5    11     
06 17.08.18 060 (СВ) 20000 м  в посл. час дождь  10/10 300 м 
[Frnb]
+14.3 +13.4 94 +21  1004.9  -1  747  283           
09 17.08.18 010 (С) 4000 м  слаб. дождь  10/10 300 м 
[Ns]
+14.6 +13.4 93 +21  1005  -0.1  748  283           
12 17.08.18 310 (СЗ) 4000 м  слаб. дождь  10/10 300 м 
[Ns]
+14 +13.6 97 +20  1005.4  0.4  748  284           
15 17.08.18 330 (СЗ) 7-11{11}  4000 м  слаб. дождь  10/10 300 м 
[Ns]
+12.9 +11.6 92 +15  1005.6  0.2  748  286    +15     
03 18.08.18 340 (С) 9-13{15}  4000 м  слаб. дождь  10/10 300 м 
[Ns]
+10.8 +9.4 91 +9  1009.3  751  289  +10.8    10     
15 18.08.18 340 (С) 5{10}  20000 м    10/9 600 м верхняя 
[Sc|Ci fib]
+12.8 +7.2 69 +12  1016  1.4  756  290    +14.9     
18 18.08.18 330 (СЗ) 20000 м    10/9 600 м верхняя 
[Sc|Cs]
+11.4 +7.7 78 +11  1016.8  0.7  756  291           
21 18.08.18 330 (СЗ) 20000 м  {дождь}  10/10 600 м 
[Sc]
+10.5 +8.1 85 +10  1017.3  0.5  757  292           
00 19.08.18 340 (С) 20000 м  {дождь}  10/8 600 м средняя, верхняя 
[Sc|Ac cast|Cs]
+9.9 +8 88 +9  1017.6  0.3  757  293           
03 19.08.18 350 (С) 20000 м    9/1 600 м средняя, верхняя 
[Sc diur, vesp|Ac cast|Ci fib]
+10.9 +8.3 84 +10  1018.6  758  292  +9.9    0.0     
06 19.08.18 350 (С) 20000 м    8/3 600 м средняя, верхняя 
[Sc diur, vesp|Ac cast|Cc]
+14.1 +8.9 71 +14  1018.8  0.2  758  289           
09 19.08.18 030 (СВ) 20000 м    9/8 600 м кучево-дожд., верхняя 
[Cb cap|Ci]
+16.1 +8.7 61 +16  1018.1  -0.6  757  287           
Время (UTC), дата Ветер
(°,м/с) 
Видим.   Явления Облачность Т
(°С)
Тd
(°С)
f(%) Тe
(°С)
Pmin
(гПа)
dP
(гПа)
Po
(мм)
O2
(г/м3)
Тmin Tmax R s Состояние
почвы

Для получения пояснительной информации подведите курсор к названию столбца.

ПОГОДА в Леуши - архив

Всё, что Вы хотите узнать о погоде в Леуши - удобно и подробно!

Выберите нужную дату (начиная с 1 января 2015* года) и нажмите кнопку "Найти".
Будут отображены архивные сводки погоды по пункту Леуши, начиная с указанной даты.


Отображать данные в формате CSV (для использования в таблицах Excel)


Внимание! Наш архив погоды предназначен исключительно для личного некоммерческого использования в познавательных целях. Если Вам необходимы официальные справки о состоянии погоды (для производственных, юридических, коммерческих и т.п. целей), обращайтесь в органы Росгидромета.

*Примечание: данная дата относится к архиву по метеостанциям СССР (Россия, СНГ, Балтия).
Архив по метеостанциям Зарубежной Европы и Азии (кроме Китая) хранится 10 дней, по другим регионам земного шара (Китай, Африка, Америка, Австралия, Океания) - 1 день.

Леуши - район местоположения метеостанции


Название, широта, долгота, высота метеостанции:
Леуши 59.6°ш. 65.7°д. 72 м над ур. моря [Российская Федерация]

Дополнительная информация

В oтличие oт бoльшинства пoгoдных сайтoв мы публикуем пoдрoбную метеoинфoрмацию в детальнoм прoфессиoнальнoм фoрмате.

Характеристики температуры и влажнoсти вoздуха измеряются на высoте 2 м в тени вдали oт зданий и деревьев.
Скoрoсть ветра измеряется на высoте 10 м (на урoвне рoста челoвека скoрoсть ветра ниже в 1.5-2 раза). Если метеoстанция нахoдится в гoрoде или в лесу, тo скoрoсть ветра занижена на 2-4 м/с пo сравнению с oткрытым местoм. Скoрoсть ветра над акватoриями крупных рек и oзёр, а также на вершинах хoлмoв на 2-5 м/с выше, чем в oбычных услoвиях.
Атмoсфернoе давление в разных тoчках местнoсти мoжет значительнo oтличаться oт давления на метеoстанции, в зависимoсти oт услoвий рельефа (при пoдъёме на 10 м давление пoнижается примернo на 1 мм рт.ст.).